Location: Asheville, NC
(35.6000°N, 82.5500°W)
Time: 18:35:30
(UTC-04:00)

Vanguard 1 - Pass Details

Date: 14 February 2018
Orbit: 650 x 3833 km, 34.3° (Epoch: 21 May)

Event Time Altitude Azimuth Distance (km) Brightness Sun altitude
Rises 21:20:53 0° 277° (W) 3,169 13.6 -39.0°
Reaches altitude 10° 21:23:28 10° 270° (W) 2,109 12.4 -39.5°
Enters shadow 21:24:03 13° 268° (W) 1,875 12.1 -39.6°
